Satellite: AO-51
Catalog number: 28375
Epoch time:      05034.68884358
Element set:     174
Inclination:       98.2313 deg
RA of node:       102.4272 deg
Eccentricity:    0.0083289
Arg of perigee:   274.5269 deg
Mean anomaly:      84.6413 deg
Mean motion:   14.40432031 rev/day
Decay rate:        2.7e-07 rev/day^2
Epoch rev:            3139
Checksum:              298

/EX
SB KEPS @ AMSAT  $ORB05034.W
Orbital Elements  05034.WEATHER

HR AMSAT ORBITAL ELEMENTS FOR WEATHER SATELLITES
FROM WA5QGD FORT WORTH,TX February 3, 2005
SEND SUBSCRIBE/UNSUBSCRIBE TO majordomo@amsat.org ONLY
BID: ORB05034.W
TO ALL RADIO AMATEURS BT

Satellite: NOAA-10
Catalog number: 16969
Epoch time:      05034.35809655
Element set:     586
Inclination:       98.7637 deg
RA of node:        39.8027 deg
Eccentricity:    0.0012675
Arg of perigee:   158.8335 deg
Mean anomaly:     201.3374 deg
Mean motion:   14.27239002 rev/day
Decay rate:        1.3e-07 rev/day^2
Epoch rev:           95600
Checksum:              312

Satellite: NOAA-11
Catalog number: 19531
Epoch time:      05034.41540616
Element set:     440
Inclination:       98.8517 deg
RA of node:       122.6335 deg
Eccentricity:    0.0011027
Arg of perigee:   331.8253 deg
Mean anomaly:      28.2320 deg
Mean motion:   14.14751154 rev/day
Decay rate:       1.99e-06 rev/day^2
Epoch rev:           84401
Checksum:              260

Satellite: NOAA-12
Catalog number: 21263
Epoch time:      05034.39163401
Element set:     933
Inclination:       98.6910 deg
RA of node:        25.8747 deg
Eccentricity:    0.0013671
Arg of perigee:    97.5729 deg
Mean anomaly:     262.7012 deg
Mean motion:   14.25446404 rev/day
Decay rate:       -3.5e-07 rev/day^2
Epoch rev:           71318
Checksum:              288

Satellite: MET-3/5
Catalog number: 21655
Epoch time:      05033.71080664
Element set:     733
Inclination:       82.5538 deg
RA of node:       253.6488 deg
Eccentricity:    0.0012518
Arg of perigee:   207.5403 deg
Mean anomaly:     152.5081 deg
Mean motion:   13.17000653 rev/day
Decay rate:        5.1e-07 rev/day^2
Epoch rev:           64761
Checksum:              277

Satellite: MET-2/21
Catalog number: 22782
Epoch time:      05033.90596968
Element set:     120
Inclination:       82.5511 deg
RA of node:         7.5000 deg
Eccentricity:    0.0023380
Arg of perigee:   137.9576 deg
Mean anomaly:     222.3415 deg
Mean motion:   13.83580376 rev/day
Decay rate:        7.4e-07 rev/day^2
Epoch rev:           57700
Checksum:              284

Satellite: OKEAN-4
Catalog number: 23317
Epoch time:      05034.20278189
Element set:     541
Inclination:       82.5394 deg
RA of node:        22.3005 deg
Eccentricity:    0.0021247
Arg of perigee:   214.7507 deg
Mean anomaly:     145.2317 deg
Mean motion:   14.82053776 rev/day
Decay rate:       3.68e-06 rev/day^2
Epoch rev:           55606
Checksum:              279

Satellite: NOAA-14
Catalog number: 23455
Epoch time:      05034.36772749
Element set:     460
Inclination:       99.1112 deg
RA of node:        80.3933 deg
Eccentricity:    0.0009346
Arg of perigee:    22.9469 deg
Mean anomaly:     337.2116 deg
Mean motion:   14.13534592 rev/day
Decay rate:        7.2e-07 rev/day^2
Epoch rev:           52059
Checksum:              295

Satellite: SICH-1
Catalog number: 23657
Epoch time:      05034.26811102
Element set:     344
Inclination:       82.5309 deg
RA of node:       163.0757 deg
Eccentricity:    0.0023634
Arg of perigee:   199.3375 deg
Mean anomaly:     160.6950 deg
Mean motion:   14.81076292 rev/day
Decay rate:       4.43e-06 rev/day^2
Epoch rev:           50813
Checksum:              284

Satellite: NOAA-15
Catalog number: 25338
Epoch time:      05034.26288528
Element set:     907
Inclination:       98.5162 deg
RA of node:        46.6561 deg
Eccentricity:    0.0011116
Arg of perigee:    34.9104 deg
Mean anomaly:     325.2809 deg
Mean motion:   14.24486409 rev/day
Decay rate:        3.7e-07 rev/day^2
Epoch rev:           34968
Checksum:              308

Satellite: RESURS
Catalog number: 25394
Epoch time:      05034.50365925
Element set:      10
Inclination:       98.5567 deg
RA of node:       107.4319 deg
Eccentricity:    0.0001853
Arg of perigee:   154.7989 deg
Mean anomaly:     205.3282 deg
Mean motion:   14.24049709 rev/day
Decay rate:        5.2e-07 rev/day^2
Epoch rev:           34142
Checksum:              289

Satellite: FENGYUN1
Catalog number: 25730
Epoch time:      05034.47162789
Element set:     341
Inclination:       98.6060 deg
RA of node:        41.6088 deg
Eccentricity:    0.0015261
Arg of perigee:   120.7881 deg
Mean anomaly:     239.4809 deg
Mean motion:   14.11788620 rev/day
Decay rate:       -3.0e-07 rev/day^2
Epoch rev:           29564
Checksum:              293

Satellite: OKEAN-0
Catalog number: 25860
Epoch time:      05034.22945067
Element set:     348
Inclination:       97.7734 deg
RA of node:        65.9173 deg
Eccentricity:    0.0000471
Arg of perigee:    61.0792 deg
Mean anomaly:     299.0463 deg
Mean motion:   14.73199487 rev/day
Decay rate:       1.28e-06 rev/day^2
Epoch rev:           29828
Checksum:              324

Satellite: NOAA-16
Catalog number: 26536
Epoch time:      05034.31336209
Element set:     213
Inclination:       98.9971 deg
RA of node:       352.1129 deg
Eccentricity:    0.0011323
Arg of perigee:    86.5372 deg
Mean anomaly:     273.7110 deg
Mean motion:   14.12203030 rev/day
Decay rate:       -6.4e-07 rev/day^2
Epoch rev:           22516
Checksum:              256

